EN

Hourly Weather Trepivka

Today, 15 April, Thursday

Time Temperature Precipitation Wind Pressure Humidity
00:00 +9°C° 0 mm 2 mps 741 mmHg 77%
01:00 +8°C° 0 mm 2 mps 740 mmHg 79%
02:00 +7°C° 0 mm 2 mps 740 mmHg 81%
03:00 +7°C° 0 mm 2 mps 740 mmHg 82%
04:00 +7°C° 0 mm 2 mps 740 mmHg 83%
05:00 +7°C° 0 mm 2 mps 740 mmHg 83%
06:00 +8°C° 0.2 mm 2 mps 740 mmHg 83%
07:00 +8°C° 0.2 mm 3 mps 740 mmHg 82%
08:00 +8°C° 0.2 mm 3 mps 740 mmHg 82%
09:00 +9°C° 0.1 mm 3 mps 740 mmHg 79%
10:00 +9°C° 0.1 mm 3 mps 740 mmHg 76%
11:00 +10°C° 0.1 mm 3 mps 740 mmHg 73%
12:00 +11°C° 0.2 mm 3 mps 739 mmHg 69%
13:00 +11°C° 0.2 mm 3 mps 739 mmHg 65%
14:00 +12°C° 0.2 mm 3 mps 739 mmHg 61%
15:00 +12°C° 0.1 mm 3 mps 739 mmHg 62%
16:00 +11°C° 0.1 mm 3 mps 739 mmHg 63%
17:00 +11°C° 0.1 mm 3 mps 739 mmHg 64%
18:00 +10°C° 0 mm 2 mps 739 mmHg 70%
19:00 +9°C° 0 mm 2 mps 739 mmHg 76%
20:00 +8°C° 0 mm 2 mps 739 mmHg 82%
21:00 +8°C° 0 mm 2 mps 739 mmHg 84%
22:00 +8°C° 0 mm 2 mps 739 mmHg 86%
23:00 +7°C° 0 mm 3 mps 739 mmHg 88%

Tomorrow, 16 April, Friday

Time Temperature Precipitation Wind Pressure Humidity
00:00 +7°C° 0 mm 3 mps 739 mmHg 90%
01:00 +7°C° 0 mm 3 mps 739 mmHg 92%
02:00 +5°C° 0 mm 3 mps 739 mmHg 93%
03:00 +5°C° 0 mm 3 mps 739 mmHg 94%
04:00 +5°C° 0 mm 3 mps 739 mmHg 95%
05:00 +5°C° 0 mm 3 mps 740 mmHg 95%
06:00 +7°C° 0.1 mm 3 mps 740 mmHg 94%
07:00 +7°C° 0.1 mm 3 mps 740 mmHg 92%
08:00 +7°C° 0.1 mm 3 mps 740 mmHg 90%
09:00 +7°C° 0.3 mm 3 mps 741 mmHg 88%
10:00 +7°C° 0.3 mm 4 mps 741 mmHg 86%
11:00 +7°C° 0.3 mm 5 mps 741 mmHg 83%
12:00 +6°C° 0.9 mm 5 mps 741 mmHg 85%
13:00 +5°C° 0.9 mm 5 mps 742 mmHg 87%
14:00 +3°C° 0.9 mm 5 mps 742 mmHg 89%
15:00 +3°C° 0.3 mm 5 mps 742 mmHg 90%
16:00 +4°C° 0.3 mm 4 mps 743 mmHg 91%
17:00 +3°C° 0.3 mm 4 mps 743 mmHg 92%
18:00 +3°C° 0.1 mm 4 mps 743 mmHg 93%
19:00 +3°C° 0.1 mm 4 mps 743 mmHg 94%
20:00 +3°C° 0.1 mm 3 mps 744 mmHg 95%
21:00 +3°C° 0.1 mm 3 mps 744 mmHg 95%
22:00 +2°C° 0.1 mm 3 mps 744 mmHg 95%
23:00 +2°C° 0.1 mm 3 mps 744 mmHg 95%

Day after tomorrow, 17 April, Saturday

Time Temperature Precipitation Wind Pressure Humidity
00:00 +2°C° 0.1 mm 3 mps 745 mmHg 95%
01:00 +3°C° 0.1 mm 3 mps 745 mmHg 95%
02:00 +3°C° 0.1 mm 3 mps 745 mmHg 96%
03:00 +3°C° 0 mm 3 mps 745 mmHg 93%
04:00 +3°C° 0 mm 3 mps 745 mmHg 91%
05:00 +3°C° 0 mm 3 mps 746 mmHg 89%
06:00 +4°C° 0 mm 3 mps 746 mmHg 84%
07:00 +4°C° 0 mm 3 mps 746 mmHg 79%
08:00 +5°C° 0 mm 3 mps 747 mmHg 74%
09:00 +7°C° 0 mm 3 mps 747 mmHg 72%
10:00 +7°C° 0 mm 4 mps 747 mmHg 69%
11:00 +8°C° 0 mm 4 mps 747 mmHg 66%
12:00 +8°C° 0.1 mm 4 mps 747 mmHg 64%
13:00 +10°C° 0.1 mm 4 mps 747 mmHg 62%
14:00 +10°C° 0.1 mm 4 mps 747 mmHg 61%
15:00 +10°C° 0.1 mm 4 mps 746 mmHg 62%
16:00 +10°C° 0.1 mm 3 mps 746 mmHg 63%
17:00 +10°C° 0.1 mm 3 mps 746 mmHg 65%
18:00 +9°C° 0.1 mm 2 mps 746 mmHg 70%
19:00 +8°C° 0.1 mm 2 mps 746 mmHg 76%
20:00 +7°C° 0.1 mm 2 mps 747 mmHg 82%
21:00 +7°C° 0 mm 2 mps 746 mmHg 84%
22:00 +6°C° 0 mm 2 mps 746 mmHg 86%
23:00 +6°C° 0 mm 2 mps 746 mmHg 89%

18 April, Sunday

Time Temperature Precipitation Wind Pressure Humidity
00:00 +5°C° 0 mm 2 mps 746 mmHg 90%
01:00 +5°C° 0 mm 2 mps 746 mmHg 92%
02:00 +4°C° 0 mm 2 mps 746 mmHg 94%
03:00 +4°C° 0 mm 2 mps 746 mmHg 94%
04:00 +4°C° 0 mm 2 mps 746 mmHg 94%
05:00 +3°C° 0 mm 2 mps 746 mmHg 94%
06:00 +6°C° 0 mm 1 mps 746 mmHg 88%
07:00 +7°C° 0 mm 1 mps 746 mmHg 82%
08:00 +8°C° 0 mm 1 mps 746 mmHg 76%
09:00 +10°C° 0 mm 1 mps 746 mmHg 70%
10:00 +11°C° 0 mm 1 mps 746 mmHg 64%
11:00 +13°C° 0 mm 2 mps 746 mmHg 57%
12:00 +13°C° 0 mm 2 mps 746 mmHg 55%
13:00 +13°C° 0 mm 2 mps 745 mmHg 52%
14:00 +14°C° 0 mm 2 mps 745 mmHg 49%
15:00 +14°C° 0 mm 2 mps 745 mmHg 51%
16:00 +13°C° 0 mm 2 mps 745 mmHg 53%
17:00 +13°C° 0 mm 1 mps 745 mmHg 54%
18:00 +13°C° 0 mm 1 mps 745 mmHg 56%
19:00 +12°C° 0 mm 1 mps 745 mmHg 58%
20:00 +11°C° 0 mm 1 mps 745 mmHg 60%
21:00 +10°C° 0 mm 2 mps 745 mmHg 61%
22:00 +9°C° 0 mm 2 mps 745 mmHg 62%
23:00 +9°C° 0 mm 2 mps 745 mmHg 63%

19 April, Monday

Time Temperature Precipitation Wind Pressure Humidity
00:00 +8°C° 0 mm 2 mps 745 mmHg 65%
01:00 +8°C° 0 mm 2 mps 745 mmHg 67%
02:00 +8°C° 0 mm 2 mps 745 mmHg 69%
03:00 +7°C° 0 mm 2 mps 745 mmHg 72%
04:00 +7°C° 0 mm 2 mps 745 mmHg 74%
05:00 +7°C° 0 mm 2 mps 745 mmHg 76%
06:00 +8°C° 0 mm 3 mps 745 mmHg 72%
07:00 +8°C° 0 mm 4 mps 745 mmHg 68%
08:00 +10°C° 0 mm 4 mps 744 mmHg 65%
09:00 +11°C° 0 mm 4 mps 744 mmHg 59%
10:00 +12°C° 0 mm 4 mps 744 mmHg 54%
11:00 +14°C° 0 mm 4 mps 744 mmHg 49%
12:00 +14°C° 0 mm 5 mps 744 mmHg 47%
13:00 +14°C° 0 mm 5 mps 743 mmHg 46%
14:00 +15°C° 0 mm 6 mps 743 mmHg 44%
15:00 +14°C° 0 mm 6 mps 742 mmHg 48%
16:00 +13°C° 0 mm 6 mps 742 mmHg 52%
17:00 +12°C° 0 mm 7 mps 741 mmHg 56%
18:00 +11°C° 0 mm 7 mps 741 mmHg 57%
19:00 +10°C° 0 mm 7 mps 740 mmHg 59%
20:00 +9°C° 0 mm 7 mps 740 mmHg 60%
21:00 +9°C° 0.1 mm 7 mps 739 mmHg 63%
22:00 +9°C° 0.1 mm 7 mps 739 mmHg 66%
23:00 +8°C° 0.1 mm 7 mps 738 mmHg 69%

20 April, Tuesday

Time Temperature Precipitation Wind Pressure Humidity
00:00 +7°C° 0.4 mm 8 mps 738 mmHg 72%
01:00 +7°C° 0.4 mm 8 mps 737 mmHg 75%
02:00 +7°C° 0.4 mm 8 mps 736 mmHg 78%
03:00 +6°C° 1.9 mm 8 mps 736 mmHg 81%
04:00 +6°C° 1.9 mm 8 mps 736 mmHg 85%
05:00 +6°C° 1.9 mm 8 mps 736 mmHg 88%
06:00 +5°C° 1.9 mm 8 mps 735 mmHg 89%
07:00 +5°C° 1.9 mm 9 mps 734 mmHg 89%
08:00 +5°C° 1.9 mm 10 mps 734 mmHg 90%
09:00 +3°C° 2.4 mm 9 mps 734 mmHg 91%
10:00 +3°C° 2.4 mm 9 mps 733 mmHg 92%
11:00 +3°C° 2.4 mm 9 mps 733 mmHg 93%
12:00 +2°C° 1.4 mm 9 mps 733 mmHg 93%
13:00 +2°C° 1.4 mm 9 mps 733 mmHg 93%
14:00 +2°C° 1.4 mm 9 mps 733 mmHg 93%
15:00 +2°C° 0.4 mm 8 mps 732 mmHg 94%
16:00 +2°C° 0.4 mm 8 mps 732 mmHg 94%
17:00 +1°C° 0.4 mm 8 mps 732 mmHg 95%
18:00 +2°C° 0.2 mm 7 mps 732 mmHg 94%
19:00 +2°C° 0.2 mm 6 mps 732 mmHg 94%
20:00 +2°C° 0.2 mm 5 mps 732 mmHg 94%
21:00 +2°C° 0.1 mm 5 mps 732 mmHg 94%
22:00 +2°C° 0.1 mm 5 mps 731 mmHg 95%
23:00 +1°C° 0.1 mm 5 mps 731 mmHg 95%
Show more

We Need Your Consent

Meteoprog and our Service Providers may store and access personal data such as cookies, device identifiers or other similar technologies on your device and process such data to personalise content and ads, as well as provide social media features and to analyse the traffic.

  • Store and/or access information on your device

    Cookies, device identifiers or other information can be stored or accessed on your device for the purposes indicated above.

  • Personalised ads and content, ad and content measurement, audience insights, and products development

    Ads and content can be personalised based on a profile. More data can be added to better personalise ads and content. Ad and content performance can be measured. Insights about the audience who saw the ads and content can be derived. Such data can be used to develop or improve user’s experience, systems and software.

By clicking ‘I Agree’ you will allow the use of indicated cookies, device identifiers, web beacons or other similar technologies. Your settings can be changed in the browser on your device.

For certain purposes, legitimate interests may be relied on, rather than consent. You can read more about this in our Privacy and Cookie Policy.